Vertical_Velocity
0 1 3 1 -0 -1 -3 1 2 3 0 1 2 1 -2 -1 -1 -3 5 -6 -1 1 -0 1 -1 -0 0 0 0 -2 -0 -4 -5 -4 -19 8 -4 1 1 0 0 6 0 -6 1
-0 -0 2 3 -2 -2 -3 -0 1 3 1 2 -2 3 -3 -0 -4 -5 9 -1 -3 1 -2 1 0 -1 3 -0 -1 1 -5 -4 -9 -1 -20 8 0 3 0 -2 -5 4 1 1 1
-2 -0 2 1 0 -2 -2 0 -2 2 0 1 -2 2 0 -3 -6 2 -3 -0 -1 -3 -1 -1 2 -1 -2 3 -1 -1 -8 -2 -6 1 1 5 3 4 4 3 1 3 -4 -5 -3
-1 -1 -0 1 2 2 -1 1 0 0 1 0 -0 1 -2 1 -7 1 1 2 1 -2 1 -1 1 -0 -2 -2 0 -6 3 -1 -1 5 2 2 5 2 0 4 4 -2 9 -3 -4
1 2 -2 -1 2 4 -1 1 1 -0 1 2 -1 -0 -3 -1 3 -4 1 -0 1 -1 1 -1 -2 1 -1 -1 2 1 -1 2 -5 2 3 3 -1 -5 1 6 9 2 4 4 -3
1 1 1 1 -0 2 -1 1 1 0 -0 1 0 -3 -2 2 -1 -3 -1 -2 1 2 -0 -1 1 6 -2 -4 2 1 -2 1 -0 -2 2 -4 -8 7 3 7 0 4 -0 -1 -3
1 1 0 2 2 0 1 1 -2 -0 -0 -0 -0 -5 -2 15 -2 -1 -4 -1 -2 0 2 2 3 -3 -4 -1 6 -5 0 -3 2 -4 -7 6 -24 -14 -9 -5 -1 2 -5 1 -4
-1 1 0 1 -0 1 1 0 1 0 1 -1 1 -6 0 4 -3 -2 -4 -0 2 -1 3 1 2 -1 1 -2 -0 1 3 -1 -3 6 0 15 -48 3 -0 -2 -9 -3 -4 3 0
1 -0 0 1 0 2 1 1 1 -0 1 -0 0 -4 3 1 2 -1 -2 -0 1 2 -0 6 2 1 4 -2 1 2 -4 -4 -11 4 5 2 -5 -3 5 3 -8 -3 -9 2 3
2 1 -0 1 0 1 0 3 1 0 2 0 0 -3 -0 -1 -0 2 -1 0 -0 1 1 2 6 -1 -3 0 -12 -11 -1 -3 5 0 5 -2 2 -7 3 -2 -3 -2 -4 3 4
3 3 1 -0 1 -1 2 1 2 -3 -0 5 -4 2 -4 -2 -1 5 2 -1 1 -1 -2 1 2 -10 -7 5 5 3 -2 -3 7 -2 -5 1 -4 -10 2 -6 -7 -8 -4 2 -2
5 3 2 3 -1 2 -1 -1 3 -1 -5 1 0 -2 1 -2 -7 3 2 -3 1 -5 7 5 -4 -7 5 3 3 4 -3 -6 0 0 0 7 -13 -8 -11 -7 -2 -2 -2 2 -3
9 5 3 21 -1 -5 5 2 -1 0 0 -2 2 -2 6 2 -9 2 -2 2 -1 3 -0 3 -3 3 0 -0 4 -5 -7 11 -1 -7 -9 6 -36 -8 -8 -1 -4 -5 1 5 -6
15 5 6 -6 9 1 -1 1 3 -1 -3 -6 1 -4 -1 1 -13 4 -2 2 -0 -4 5 6 -8 -0 1 2 -2 -11 15 6 8 6 -1 10 -23 -18 -0 -5 -13 -6 4 0 -3
18 3 12 10 -8 -7 14 4 1 -0 -3 -4 -1 -1 0 -0 0 -2 0 7 -1 -2 -4 -12 -3 -5 4 -32 13 -16 -3 1 9 -1 9 -22 20 -41 -5 -11 -15 -8 -7 -7 -5
31 20 17 -1 28 -4 -1 1 1 -0 -14 -2 -0 0 -1 0 2 1 2 -1 8 12 3 -3 5 -4 -6 4 -7 14 -1 -2 5 6 13 -16 8 -22 -17 -18 6 2 -1 -7 -1
38 1 44 -3 -5 2 -7 4 -0 -1 -2 -1 -1 -1 -2 -0 1 3 -2 -6 -8 3 3 12 -12 -1 1 5 7 12 19 3 12 13 -12 8 15 -53 -2 -23 -2 8 -1 -2 5
-15 4 22 -6 2 0 12 5 2 2 4 -2 -2 -2 -3 5 -5 2 -3 2 1 6 2 1 -7 6 -1 -14 -10 -12 3 0 -1 -2 -12 10 -5 -62 -16 12 3 -1 13 11 5
24 10 7 5 3 4 1 3 -10 -5 1 -1 -1 0 -4 -2 3 -2 -3 -2 -6 -8 -9 -1 -11 -4 -0 5 21 -2 -12 -3 6 -1 14 -13 -11 -28 -7 1 -0 -6 -5 7 3
5 34 3 20 5 4 15 -5 3 -3 -1 -0 -0 -5 -1 2 -2 -1 -5 1 -4 -6 6 -3 -5 -1 -4 8 -3 -23 18 15 18 1 -1 3 -2 -15 -20 -12 -2 -3 2 -1 3
12 59 7 -4 24 10 -6 -7 2 -5 -1 2 -1 -1 -2 7 -1 -2 -3 2 -1 -2 7 0 6 -6 -1 -10 -1 12 7 5 -3 -4 0 -1 -6 4 -9 -8 -2 2 1 -1 2
38 11 32 9 15 5 -0 -5 -1 2 2 -4 -0 0 -0 -3 1 6 -6 -4 -4 9 -19 -10 11 2 -26 1 1 3 5 -3 5 7 -6 9 -11 5 5 -6 -1 2 2 8 10
28 12 38 4 2 -6 -1 -6 -2 -2 -2 -1 1 -2 2 -2 8 1 1 7 -2 1 -5 -9 3 -1 -7 8 16 2 4 -5 -7 18 -10 1 -2 1 -0 1 4 1 4 4 1
-6 15 14 23 2 2 -7 -6 -4 -1 1 1 -1 7 4 -0 -1 0 -1 -0 4 -6 5 17 -1 -8 -8 -7 10 7 -12 4 2 13 2 2 -5 1 -0 1 1 -0 8 2 1
-1 10 -16 -17 3 -5 -2 -3 -1 1 -0 2 -2 -6 2 6 -1 -5 1 5 -0 6 5 7 0 6 5 -7 20 -4 26 12 27 7 2 5 1 -3 -1 -2 3 7 2 -2 -2
9 -4 0 1 7 -3 4 -9 -1 3 -0 -1 -9 1 17 -2 -11 -7 2 -1 -14 -1 -1 -2 -6 -5 -16 18 9 2 -0 -11 -5 -1 -6 8 -11 9 1 3 2 4 0 -1 0
-4 -0 7 3 -0 3 -10 -4 4 12 -3 2 0 12 -1 -10 2 14 8 6 5 -7 4 8 5 1 -5 6 -2 0 -2 -5 7 -5 -2 -1 -0 1 -1 1 0 -3 1 2 1
Height
3086 3084 3084 3083 3083 3082 3081 3080 3081 3082 3082 3082 3082 3082 3082 3084 3086 3088 3090 3090 3092 3094 3095 3097 3099 3101 3104 3107 3109 3111 3111 3107 3111 3116 3119 3125 3126 3126 3129 3128 3130 3131 3129 3130 3130
3082 3081 3081 3079 3081 3079 3078 3077 3077 3078 3078 3078 3077 3078 3077 3080 3081 3081 3087 3084 3087 3090 3091 3093 3094 3096 3099 3102 3103 3104 3101 3101 3107 3111 3115 3119 3121 3123 3124 3124 3126 3127 3125 3126 3127
3078 3077 3077 3076 3076 3077 3076 3074 3073 3074 3074 3073 3073 3073 3075 3076 3077 3077 3080 3081 3082 3083 3086 3089 3090 3091 3093 3096 3096 3096 3091 3098 3102 3106 3111 3112 3115 3118 3119 3119 3121 3123 3122 3122 3123
3074 3074 3072 3072 3072 3072 3072 3071 3070 3070 3069 3069 3068 3069 3071 3073 3076 3073 3075 3076 3078 3079 3081 3083 3085 3086 3088 3089 3092 3090 3089 3093 3097 3102 3103 3106 3111 3111 3111 3114 3116 3117 3119 3118 3120
3068 3068 3069 3068 3068 3068 3068 3068 3067 3066 3065 3064 3064 3066 3068 3067 3069 3072 3070 3071 3073 3076 3077 3078 3080 3082 3083 3084 3087 3083 3086 3089 3092 3096 3097 3102 3101 3104 3104 3109 3111 3112 3114 3116 3117
3062 3062 3063 3063 3063 3064 3064 3064 3064 3062 3061 3060 3060 3062 3063 3063 3063 3067 3066 3065 3068 3070 3072 3075 3076 3078 3078 3079 3080 3080 3080 3082 3084 3088 3091 3093 3093 3095 3097 3104 3105 3106 3108 3111 3113
3056 3056 3057 3057 3058 3058 3059 3059 3059 3059 3057 3056 3056 3058 3058 3061 3059 3060 3062 3063 3063 3065 3067 3070 3071 3072 3073 3075 3076 3074 3074 3076 3077 3082 3084 3090 3081 3080 3091 3098 3098 3099 3102 3106 3107
3049 3050 3050 3051 3052 3052 3053 3054 3054 3053 3053 3052 3051 3054 3054 3055 3053 3053 3058 3059 3059 3060 3063 3064 3065 3067 3068 3071 3071 3071 3070 3068 3071 3078 3081 3089 3058 3079 3087 3091 3091 3093 3096 3099 3099
3041 3042 3043 3044 3045 3046 3048 3049 3048 3049 3048 3048 3047 3049 3051 3050 3049 3049 3051 3054 3054 3056 3059 3059 3059 3061 3064 3066 3069 3067 3062 3062 3066 3073 3076 3078 3057 3072 3081 3084 3084 3087 3089 3090 3092
3033 3034 3035 3037 3039 3040 3042 3043 3043 3043 3042 3043 3041 3046 3046 3046 3046 3046 3046 3048 3050 3051 3054 3056 3054 3055 3057 3061 3057 3058 3057 3058 3060 3069 3071 3070 3057 3066 3073 3077 3078 3080 3083 3085 3086
3024 3026 3028 3029 3031 3034 3036 3037 3040 3038 3035 3038 3037 3039 3039 3040 3041 3042 3041 3044 3045 3046 3047 3050 3049 3044 3051 3054 3056 3057 3055 3051 3057 3063 3063 3062 3055 3058 3065 3067 3068 3071 3076 3078 3081
3015 3018 3022 3025 3024 3026 3029 3031 3032 3031 3028 3029 3032 3031 3032 3031 3034 3036 3038 3041 3040 3040 3045 3047 3040 3045 3050 3051 3052 3053 3051 3044 3053 3059 3061 3056 3046 3048 3053 3053 3059 3063 3067 3072 3075
3005 3009 3015 3019 3018 3019 3024 3026 3026 3024 3024 3022 3025 3021 3027 3026 3027 3030 3033 3035 3035 3038 3040 3039 3040 3043 3044 3046 3048 3047 3042 3046 3049 3053 3052 3052 3035 3038 3041 3046 3050 3054 3059 3064 3067
2991 2999 3005 3010 3011 3015 3018 3019 3020 3022 3021 3017 3016 3015 3017 3018 3022 3024 3026 3031 3030 3031 3037 3035 3037 3039 3039 3041 3046 3038 3043 3045 3045 3049 3046 3048 3033 3030 3035 3036 3039 3043 3048 3055 3059
2979 2986 2994 3000 3005 3009 3016 3015 3016 3020 3023 3015 3012 3013 3014 3017 3019 3019 3021 3023 3024 3026 3031 3028 3029 3032 3031 3033 3038 3031 3040 3041 3042 3041 3044 3040 3045 3013 3027 3025 3027 3031 3038 3046 3049
2969 2976 2986 2990 2993 3004 3009 3011 3014 3020 3013 3008 3008 3009 3012 3012 3014 3014 3018 3019 3020 3022 3022 3024 3026 3026 3025 3029 3030 3033 3036 3037 3036 3037 3032 3021 3037 3007 3012 3012 3019 3025 3030 3037 3041
2959 2971 2976 2982 2990 2995 3002 3007 3013 3009 3006 3004 3004 3007 3009 3010 3010 3010 3012 3014 3016 3019 3017 3016 3016 3018 3020 3022 3025 3028 3031 3028 3028 3023 3013 3015 3022 2990 3001 3009 3012 3017 3023 3028 3032
2953 2961 2965 2976 2985 2990 2994 3000 3000 2997 2998 2999 3002 3004 3006 3007 3006 3004 3006 3007 3010 3013 3014 3012 3010 3010 3009 3011 3016 3017 3021 3017 3008 3008 2999 3007 2999 2983 2995 3002 3006 3013 3017 3020 3025
2947 2955 2958 2964 2977 2983 2989 2989 2989 2991 2994 2995 2998 3000 3001 3000 3001 3001 3001 3001 3003 3005 3009 3008 3005 3004 3004 3006 3010 3008 3007 2997 3005 3004 2996 2991 2988 2992 2994 2995 3000 3005 3009 3013 3018
2937 2943 2948 2957 2970 2976 2981 2980 2984 2987 2990 2992 2995 2996 2996 2996 2996 2998 2997 2994 2994 2996 3001 3005 3002 2998 3001 2998 2996 2995 2994 2996 2991 2990 2987 2976 2981 2979 2982 2987 2992 2998 3005 3010 3016
2930 2940 2942 2954 2963 2970 2969 2974 2979 2984 2987 2989 2989 2990 2991 2990 2990 2991 2991 2991 2990 2990 2997 2999 2999 2994 2993 2987 2988 2987 2986 2985 2986 2986 2981 2970 2969 2970 2975 2981 2987 2996 3003 3008 3013
2927 2932 2938 2951 2958 2960 2963 2969 2976 2979 2982 2982 2984 2984 2984 2984 2985 2985 2982 2985 2986 2989 2990 2991 2990 2987 2981 2980 2980 2978 2976 2981 2978 2972 2974 2973 2968 2966 2974 2983 2991 2996 3001 3006 3012
2920 2932 2938 2947 2951 2954 2960 2967 2971 2974 2976 2977 2978 2978 2977 2978 2980 2976 2976 2981 2983 2985 2986 2987 2985 2985 2972 2969 2969 2969 2967 2970 2971 2971 2969 2964 2962 2965 2973 2983 2989 2994 2999 3003 3009
2923 2927 2939 2944 2948 2952 2959 2965 2967 2968 2970 2971 2971 2971 2971 2971 2973 2973 2972 2976 2979 2981 2982 2984 2980 2976 2970 2964 2963 2959 2956 2960 2965 2966 2963 2959 2961 2967 2975 2982 2987 2992 2998 3002 3007
2923 2926 2930 2937 2943 2950 2958 2960 2962 2963 2964 2965 2963 2963 2964 2965 2967 2967 2970 2974 2976 2979 2979 2980 2974 2972 2965 2957 2949 2953 2953 2956 2961 2960 2958 2963 2966 2971 2978 2983 2987 2992 2996 3001 3005
2921 2926 2932 2937 2944 2950 2953 2953 2957 2958 2960 2958 2957 2957 2957 2957 2961 2962 2967 2972 2974 2976 2975 2976 2970 2967 2957 2950 2947 2952 2954 2956 2956 2959 2963 2968 2972 2975 2980 2984 2989 2993 2997 3002 3006
2921 2926 2935 2938 2942 2947 2947 2950 2953 2954 2953 2953 2952 2952 2951 2952 2957 2963 2966 2970 2972 2972 2972 2974 2974 2970 2958 2953 2953 2956 2957 2960 2965 2969 2970 2971 2975 2977 2982 2987 2991 2995 2999 3003 3007